Location: Unspecified
(0.0000°N, 0.0000°E)
Time: 10:05:45
(UTC+00:00)

Courier 1B Rocket - Pass Details

Date: 30 May 2026
Orbit: 920 x 1201 km, 28.2° (Epoch: 9 June)

Event Time Altitude Azimuth Distance (km) Brightness Sun altitude
Rises 19:01:01 0° 217° (SW) 3,989 8.4 -14.7°
Reaches altitude 10° 19:04:33 10° 202° (SSW) 3,067 7.6 -15.5°
Maximum altitude 19:10:14 22° 154° (SSE) 2,327 6.5 -16.8°
Enters shadow 19:11:48 21° 138° (SE) 2,403 6.5 -17.2°
Drops below altitude 10° 19:15:59 10° 106° (ESE) 3,128 - -18.1°
Sets 19:19:36 0° 92° (E) 4,089 - -19.0°
